Weather History for Frankfort, MI

Change the Weather History Date:

Friday, July 4, 2014

  Actual Average (KTVC) Record (KTVC)
Temperature  
Mean Temperature 56 °F 68 °F  
Max Temperature 71 °F 80 °F 97 °F (1921)
Min Temperature 41 °F 57 °F 37 °F (1963)
Degree Days  
Heating Degree Days 9 1  
Month to date heating degree days 5  
Since 1 June heating degree days 117  
Since 1 July heating degree days 5  
Cooling Degree Days 0 5  
Month to date cooling degree days 20  
Year to date cooling degree days 121  
Since 1 June cooling degree days 101  
Growing Degree Days 6 (Base 50)    
Moisture  
Dew Point 46 °F    
Average Humidity 69    
Maximum Humidity 95    
Minimum Humidity 37    
Precipitation  
Precipitation 0.00 in 0.09 in 2.49 in (1994)
Month to date precipitation 0.37  
Year to date precipitation 15.08  
Sea Level Pressure  
Sea Level Pressure 30.27 in    
Wind  
Wind Speed 1 mph (WSW)    
Max Wind Speed 9 mph    
Max Gust Speed -    
Visibility 10 miles    
Events      
T = Trace of Precipitation, MM = Missing Value Source: NWS Daily Summary

Daily Weather History Graph

Daily Weather History Graph

Search for Another Location

Airport:

Trip Planner

Search our weather history database for the weather conditions in past years. The results will help you decide how hot, cold, wet, or windy it might be!

Date:

Astronomy

Jul. 04, 2014 Rise Set
Actual Time 6:05 AM EDT 9:32 PM EDT
Civil Twilight 5:28 AM EDT 10:09 PM EDT
Nautical Twilight 4:40 AM EDT 10:57 PM EDT
Astronomical Twilight 3:38 AM EDT 11:58 PM EDT
Moon 1:18 PM EDT (7/4) 12:38 AM EDT (7/4)
Length of Visible Light 16h 40m
Length of Day
15h 27m
Waxing Crescent, 42% of the Moon is Illuminated
Jul 4
Waxing Crescent
Jul 5
First Quarter
Jul 12
Full
Jul 18
Last Quarter
Jul 26
New

Hourly Weather History & Observations

Time (EDT) Temp. Dew Point Humidity Pressure Visibility Wind Dir Wind Speed Gust Speed Precip Events Conditions
12:16 AM 46.9 °F 44.8 °F 92% 30.19 in 10.0 mi Calm Calm - N/A   Clear
12:36 AM 46.8 °F 45.0 °F 93% 30.19 in 10.0 mi Calm Calm - N/A   Clear
12:56 AM 47.3 °F 45.3 °F 93% 30.20 in 10.0 mi Calm Calm - N/A   Clear
1:16 AM 46.9 °F 45.1 °F 93% 30.20 in 10.0 mi Calm Calm - N/A   Clear
1:36 AM 46.2 °F 44.4 °F 93% 30.21 in 10.0 mi Calm Calm - N/A   Clear
1:56 AM 46.0 °F 44.4 °F 94% 30.21 in 10.0 mi Calm Calm - N/A   Clear
2:11 AM 46.0 °F 44.4 °F 94% 30.20 in 10.0 mi Calm Calm - N/A   Clear
2:31 AM 45.7 °F 43.9 °F 93% 30.20 in 10.0 mi Calm Calm - N/A   Clear
2:52 AM 45.3 °F 43.5 °F 93% 30.21 in 10.0 mi Calm Calm - N/A   Clear
3:12 AM 45.5 °F 43.9 °F 94% 30.21 in 10.0 mi Calm Calm - N/A   Clear
3:32 AM 44.2 °F 42.8 °F 95% 30.22 in 10.0 mi Calm Calm - N/A   Clear
3:52 AM 44.1 °F 42.6 °F 95% 30.22 in 10.0 mi Calm Calm - N/A   Clear
4:12 AM 44.6 °F 43.2 °F 95% 30.22 in 10.0 mi Calm Calm - N/A   Clear
4:32 AM 43.7 °F 42.1 °F 94% 30.23 in 10.0 mi Calm Calm - N/A   Clear
4:52 AM 43.2 °F 41.5 °F 94% 30.23 in 10.0 mi Calm Calm - N/A   Clear
5:12 AM 43.3 °F 41.5 °F 93% 30.23 in - Calm Calm - N/A   Unknown
5:32 AM 42.8 °F 41.2 °F 94% 30.24 in - Calm Calm - N/A   Unknown
5:53 AM 42.4 °F 41.0 °F 95% 30.25 in 10.0 mi Calm Calm - N/A   Clear
6:13 AM 42.8 °F 41.2 °F 94% 30.26 in 10.0 mi Calm Calm - N/A   Clear
6:33 AM 41.9 °F 40.3 °F 94% 30.26 in 10.0 mi Calm Calm - N/A   Clear
6:53 AM 43.0 °F 41.2 °F 93% 30.27 in 10.0 mi Calm Calm - N/A   Clear
7:13 AM 45.0 °F 43.3 °F 94% 30.27 in 10.0 mi Calm Calm - N/A   Clear
7:33 AM 47.5 °F 45.9 °F 94% 30.28 in 10.0 mi Calm Calm - N/A   Clear
7:53 AM 50.4 °F 48.4 °F 93% 30.28 in 10.0 mi Calm Calm - N/A   Clear
8:13 AM 53.2 °F 49.6 °F 88% 30.29 in 10.0 mi Calm Calm - N/A   Clear
8:33 AM 56.7 °F 51.1 °F 82% 30.30 in 10.0 mi Calm Calm - N/A   Clear
8:53 AM 59.4 °F 50.4 °F 72% 30.31 in 10.0 mi Calm Calm - N/A   Clear
9:13 AM 61.5 °F 51.6 °F 70% 30.31 in 10.0 mi Calm Calm - N/A   Clear
9:34 AM 63.5 °F 48.4 °F 58% 30.32 in 10.0 mi Calm Calm - N/A   Clear
9:54 AM 64.0 °F 50.4 °F 61% 30.32 in 10.0 mi Calm Calm - N/A   Clear
10:14 AM 64.9 °F 52.7 °F 64% 30.32 in 10.0 mi Calm Calm - N/A   Clear
10:34 AM 66.2 °F 51.8 °F 60% 30.32 in 10.0 mi Calm Calm - N/A   Clear
10:54 AM 67.5 °F 49.1 °F 52% 30.32 in 10.0 mi WSW 3.5 mph - N/A   Clear
11:14 AM 69.6 °F 43.9 °F 39% 30.31 in 10.0 mi WSW 4.6 mph - N/A   Clear
11:34 AM 69.4 °F 47.5 °F 45% 30.31 in 10.0 mi WSW 5.8 mph - N/A   Clear
12:15 PM 68.7 °F 50.9 °F 53% 30.31 in 10.0 mi WSW 5.8 mph - N/A   Clear
12:35 PM 69.6 °F 46.6 °F 44% 30.31 in 10.0 mi SW 4.6 mph - N/A   Clear
12:55 PM 70.2 °F 43.0 °F 37% 30.30 in 10.0 mi WSW 4.6 mph - N/A   Clear
1:15 PM 70.5 °F 47.7 °F 44% 30.30 in 10.0 mi West 5.8 mph - N/A   Clear
1:35 PM 71.1 °F 45.3 °F 40% 30.30 in 10.0 mi West 6.9 mph - N/A   Clear
1:55 PM 70.0 °F 47.1 °F 44% 30.30 in 10.0 mi WSW 8.1 mph - N/A   Clear
2:15 PM 70.0 °F 48.7 °F 47% 30.30 in 10.0 mi West 8.1 mph - N/A   Clear
2:35 PM 68.7 °F 46.8 °F 45% 30.31 in 10.0 mi WSW 6.9 mph - N/A   Clear
2:55 PM 69.6 °F 46.4 °F 43% 30.31 in 10.0 mi West 9.2 mph - N/A   Clear
3:16 PM 69.1 °F 45.5 °F 43% 30.31 in 10.0 mi West 8.1 mph - N/A   Clear
3:36 PM 69.4 °F 44.8 °F 41% 30.31 in 10.0 mi WSW 6.9 mph - N/A   Clear
3:56 PM 69.8 °F 43.2 °F 38% 30.30 in 10.0 mi West 8.1 mph - N/A   Clear
4:16 PM 70.0 °F 44.4 °F 40% 30.30 in 10.0 mi West 5.8 mph - N/A   Clear
4:36 PM 68.0 °F 42.1 °F 39% 30.29 in 10.0 mi WSW 5.8 mph - N/A   Clear
4:51 PM 68.7 °F 45.0 °F 42% 30.29 in 10.0 mi WNW 5.8 mph - N/A   Clear
5:11 PM 68.2 °F 43.7 °F 41% 30.29 in 10.0 mi WSW 6.9 mph - N/A   Clear
5:31 PM 68.0 °F 43.5 °F 41% 30.29 in 10.0 mi West 5.8 mph - N/A   Clear
5:52 PM 66.7 °F 45.3 °F 46% 30.29 in 10.0 mi WSW 5.8 mph - N/A   Clear
6:12 PM 67.3 °F 45.1 °F 45% 30.29 in 10.0 mi West 5.8 mph - N/A   Clear
6:32 PM 66.4 °F 45.0 °F 46% 30.29 in 10.0 mi Calm Calm - N/A   Clear
6:52 PM 64.8 °F 44.2 °F 47% 30.29 in 10.0 mi Calm Calm - N/A   Clear
7:12 PM 64.4 °F 46.2 °F 52% 30.29 in 10.0 mi Calm Calm - N/A   Clear
7:32 PM 63.5 °F 45.5 °F 52% 30.29 in 10.0 mi West 4.6 mph - N/A   Clear
7:52 PM 63.0 °F 45.3 °F 53% 30.28 in 10.0 mi Calm Calm - N/A   Clear
8:12 PM 63.7 °F 45.0 °F 51% 30.28 in 10.0 mi West 3.5 mph - N/A   Clear
8:32 PM 62.6 °F 45.3 °F 53% 30.28 in 10.0 mi Calm Calm - N/A   Clear
8:53 PM 61.5 °F 45.7 °F 56% 30.28 in 10.0 mi Calm Calm - N/A   Clear
9:13 PM 59.0 °F 47.3 °F 65% 30.28 in 10.0 mi Calm Calm - N/A   Clear
9:33 PM 57.0 °F 46.4 °F 68% 30.28 in 10.0 mi Calm Calm - N/A   Clear
9:53 PM 54.0 °F 46.4 °F 76% 30.27 in 10.0 mi Calm Calm - N/A   Clear
10:13 PM 53.1 °F 46.4 °F 78% 30.28 in 10.0 mi Calm Calm - N/A   Clear
10:33 PM 52.5 °F 46.6 °F 80% 30.28 in 10.0 mi Calm Calm - N/A   Clear
10:53 PM 52.2 °F 46.6 °F 81% 30.27 in 10.0 mi Calm Calm - N/A   Clear
11:14 PM 51.3 °F 46.6 °F 84% 30.27 in 10.0 mi Calm Calm - N/A   Clear
11:34 PM 51.3 °F 46.9 °F 85% 30.27 in 10.0 mi Calm Calm - N/A   Clear
11:54 PM 51.3 °F 46.9 °F 85% 30.27 in 10.0 mi Calm Calm - N/A   Clear